Weather History for St. Cloud, MN

Change the Weather History Date:

Tuesday, September 24, 2013

  Actual Average Record
Temperature  
Mean Temperature 61 °F 55 °F  
Max Temperature 74 °F 67 °F 90 °F (1935)
Min Temperature 48 °F 43 °F 24 °F (2000)
Degree Days  
Heating Degree Days 4 11  
Month to date heating degree days 110 158  
Since 1 July heating degree days 159 216  
Cooling Degree Days 0 0  
Month to date cooling degree days 62 31  
Year to date cooling degree days 566 460  
Growing Degree Days 10 (Base 50)    
Moisture  
Dew Point 51 °F    
Average Humidity 73    
Maximum Humidity 100    
Minimum Humidity 46    
Precipitation  
Precipitation 0.00 in 0.11 in 1.72 in (1934)
Month to date precipitation 1.69 2.89  
Year to date precipitation 22.02 22.47  
Snow  
Snow 0.00 in 0.00 in T in (1985)
Month to date snowfall 0.0 0.0  
Since 1 July snowfall 0.0 0.0  
Since 1 September snowfall 0.0 0.0  
Snow Depth 0.00 in    
Sea Level Pressure  
Sea Level Pressure 29.97 in    
Wind  
Wind Speed 3 mph (ESE)    
Max Wind Speed 12 mph    
Max Gust Speed 14 mph    
Visibility 10 miles    
Events      
T = Trace of Precipitation, MM = Missing Value Source: NWS Daily Summary

Daily Weather History Graph

Daily Weather History Graph

Search for Another Location

Airport:

Trip Planner

Search our weather history database for the weather conditions in past years. The results will help you decide how hot, cold, wet, or windy it might be!

Date:

Astronomy

Sep. 24, 2013 Rise Set
Actual Time 7:06 AM CDT 7:09 PM CDT
Civil Twilight 6:36 AM CDT 7:38 PM CDT
Nautical Twilight 6:01 AM CDT 8:13 PM CDT
Astronomical Twilight 5:26 AM CDT 8:48 PM CDT
Moon 10:12 PM CDT (9/24) 12:36 PM CDT (9/24)
Length of Visible Light 13h 02m
Length of Day
12h 03m
Waning Gibbous, 73% of the Moon is Illuminated
Sep 24
Waning Gibbous
Sep 26
Last Quarter
Oct 4
New
Oct 11
First Quarter
Oct 18
Full

Hourly Weather History & Observations

Time (CDT) Temp. Dew Point Humidity Pressure Visibility Wind Dir Wind Speed Gust Speed Precip Events Conditions
12:53 AM 54.0 °F 50.0 °F 86% 29.94 in 10.0 mi SE 6.9 mph - N/A   Clear
1:53 AM 53.1 °F 50.0 °F 89% 29.96 in 10.0 mi SE 3.5 mph - N/A   Clear
2:53 AM 53.1 °F 50.0 °F 89% 29.95 in 10.0 mi ESE 4.6 mph - N/A   Clear
3:53 AM 52.0 °F 48.9 °F 89% 29.95 in 10.0 mi East 3.5 mph - N/A   Clear
4:53 AM 50.0 °F 48.0 °F 93% 29.95 in 10.0 mi East 3.5 mph - N/A   Clear
5:53 AM 48.9 °F 46.9 °F 93% 29.96 in 10.0 mi East 4.6 mph - N/A   Clear
6:53 AM 48.9 °F 46.9 °F 93% 29.97 in 10.0 mi East 4.6 mph - N/A   Clear
7:53 AM 50.0 °F 48.0 °F 93% 29.98 in 7.0 mi East 5.8 mph - N/A   Clear
8:53 AM 53.1 °F 50.0 °F 89% 29.99 in 10.0 mi SE 6.9 mph - N/A   Clear
9:53 AM 57.9 °F 50.0 °F 75% 29.99 in 10.0 mi SE 8.1 mph - N/A   Clear
10:53 AM 61.0 °F 51.1 °F 70% 29.99 in 10.0 mi SE 4.6 mph - N/A   Clear
11:53 AM 66.0 °F 52.0 °F 60% 29.98 in 10.0 mi East 6.9 mph - N/A   Clear
12:53 PM 69.1 °F 51.1 °F 53% 29.97 in 10.0 mi Variable 3.5 mph - N/A   Clear
1:53 PM 69.1 °F 52.0 °F 54% 29.97 in 10.0 mi West 3.5 mph - N/A   Clear
2:53 PM 70.0 °F 52.0 °F 53% 29.96 in 10.0 mi Variable 3.5 mph - N/A   Clear
3:53 PM 73.0 °F 52.0 °F 48% 29.95 in 10.0 mi Calm Calm - N/A   Clear
4:53 PM 72.0 °F 51.1 °F 48% 29.95 in 10.0 mi Calm Calm - N/A   Clear
5:53 PM 72.0 °F 50.0 °F 46% 29.96 in 10.0 mi SSW 3.5 mph - N/A   Clear
6:53 PM 64.9 °F 55.9 °F 73% 29.96 in 10.0 mi Calm Calm - N/A   Clear
7:53 PM 57.9 °F 54.0 °F 87% 29.96 in 10.0 mi Calm Calm - N/A   Clear
8:53 PM 55.0 °F 53.1 °F 93% 29.97 in 10.0 mi Calm Calm - N/A   Clear
9:53 PM 54.0 °F 52.0 °F 93% 29.97 in 8.0 mi Calm Calm - N/A   Clear
10:53 PM 52.0 °F 51.1 °F 97% 29.98 in 8.0 mi Calm Calm - N/A   Clear
11:53 PM 52.0 °F 50.0 °F 93% 29.97 in 6.0 mi Calm Calm - N/A   Clear